Location: ?????????
(38.5999°N, 22.7695°E)
Time: 09:10:48
(UTC+00:00)

PAYLOAD A - Pass Details

Date: 07 August 2024
Orbit: 690 x 831 km, 98.5° (Epoch: 08 September)

Event Time Altitude Azimuth Distance (km) Brightness Sun altitude
Rises 01:55:14 0° 17° (NNE) 3,238 8.2 -17.8°
Reaches altitude 10° 01:57:38 10° 21° (NNE) 2,285 7.4 -17.4°
Maximum altitude 02:02:34 58° 101° (E) 853 4.4 -16.7°
Enters shadow 02:07:14 10° 180° (S) 2,165 6.0 -16.0°
